Location: Unspecified
(48.2082°N, 0.0000°E)
Time: 10:02:57
(UTC+00:00)

Vanguard 1 - Pass Details

Date: 03 July 2019
Orbit: 654 x 3829 km, 34.2° (Epoch: 24 August)

Event Time Altitude Azimuth Distance (km) Brightness Sun altitude
Rises 23:59:50 0° 233° (SW) 7,810 14.3 -18.8°
Reaches altitude 10° 00:05:23 10° 229° (SW) 6,901 14.0 -18.8°
Maximum altitude 00:26:41 47° 165° (SSE) 4,174 12.8 -18.6°
Drops below altitude 10° 00:42:23 10° 99° (E) 5,243 13.8 -18.3°
Sets 00:45:53 0° 93° (E) 5,889 14.1 -18.2°
